Location: Rottenacker
(48.2350°N, 9.6886°E)
Time: 11:46:02
(UTC+02:00)

OTV 5 (USA 277) - Pass Details

Date: 30 April 2018
Orbit: 308 x 326 km, 54.5° (Epoch: 06 May)

Event Time Altitude Azimuth Distance (km) Brightness Sun altitude
Rises 21:26:50 0° 300° (WNW) 2,068 ? -8.6°
Reaches altitude 10° 21:28:56 10° 312° (NW) 1,230 ? -8.9°
Maximum altitude 21:31:26 31° 18° (NNE) 586 ? -9.2°
Drops below altitude 10° 21:33:54 10° 84° (E) 1,218 ? -9.6°
Enters shadow 21:33:56 10° 85° (E) 1,231 ? -9.6°
